Weather History for KDVL - December, 2011

Change the Weather History Date:

Friday, December 23, 2011

  Actual Average Record
Temperature  
Mean Temperature 24 °F -  
Max Temperature 28 °F 16 °F 41 °F (1963)
Min Temperature 17 °F -2 °F -37 °F (1983)
Degree Days  
Heating Degree Days 42    
Moisture  
Dew Point 17 °F    
Average Humidity 71    
Maximum Humidity 86    
Minimum Humidity 59    
Precipitation  
Precipitation 0.00 in - - ()
Sea Level Pressure  
Sea Level Pressure 29.94 in    
Wind  
Wind Speed 15 mph (WNW)    
Max Wind Speed 21 mph    
Max Gust Speed 28 mph    
Visibility 10 miles    
Events      
Averages and records for this station are not official NWS values.
T = Trace of Precipitation, MM = Missing Value Source: NWS Daily Summary

Daily Weather History Graph

Daily Weather History Graph

Search for Another Location

Airport or City:

Trip Planner

Search our weather history database for the weather conditions in past years. The results will help you decide how hot, cold, wet, or windy it might be!

Date:

Astronomy

Dec. 23, 2011 Rise Set
Actual Time 8:24 AM CST 4:45 PM CST
Civil Twilight 7:47 AM CST 5:21 PM CST
Nautical Twilight 7:07 AM CST 6:01 PM CST
Astronomical Twilight 6:29 AM CST 6:39 PM CST
Moon 7:16 AM CST (12/23) 3:54 PM CST (12/23)
Length of Visible Light 9h 34m
Length of Day
8h 21m
Waning Crescent, 1% of the Moon is Illuminated
Dec 23
Waning Crescent
Dec 24
New
Jan 1
First Quarter
Jan 9
Full
Jan 16
Last Quarter

Hourly Weather History & Observations

Time (CST) Temp. Windchill Dew Point Humidity Pressure Visibility Wind Dir Wind Speed Gust Speed Precip Events Conditions
12:15 AM 28.4 °F 15.1 °F 17.6 °F 64% 29.89 in 10.0 mi WSW 20.7 mph - N/A   Overcast
12:35 AM 28.4 °F 15.4 °F 19.4 °F 69% 29.88 in 10.0 mi WSW 19.6 mph 25.3 mph N/A   Overcast
12:55 AM 28.4 °F 15.8 °F 19.4 °F 69% 29.87 in 10.0 mi WSW 18.4 mph 24.2 mph N/A   Overcast
1:15 AM 28.4 °F 15.8 °F 19.4 °F 69% 29.86 in 10.0 mi WSW 18.4 mph - N/A   Overcast
1:35 AM 28.4 °F 16.2 °F 19.4 °F 69% 29.86 in 10.0 mi WSW 17.3 mph - N/A   Overcast
1:55 AM 28.4 °F 16.6 °F 19.4 °F 69% 29.86 in 10.0 mi West 16.1 mph - N/A   Overcast
2:15 AM 28.4 °F 16.2 °F 21.2 °F 74% 29.86 in 10.0 mi West 17.3 mph 21.9 mph N/A   Mostly Cloudy
2:35 AM 28.4 °F 15.8 °F 19.4 °F 69% 29.86 in 10.0 mi West 18.4 mph - N/A   Partly Cloudy
2:55 AM 28.4 °F 17.0 °F 19.4 °F 69% 29.87 in 10.0 mi West 15.0 mph - N/A   Partly Cloudy
3:15 AM 26.6 °F 14.7 °F 19.4 °F 74% 29.87 in 10.0 mi West 15.0 mph - N/A   Scattered Clouds
3:35 AM 26.6 °F 14.3 °F 19.4 °F 74% 29.86 in 10.0 mi West 16.1 mph - N/A   Scattered Clouds
3:55 AM 26.6 °F 13.4 °F 19.4 °F 74% 29.84 in 10.0 mi West 18.4 mph - N/A   Overcast
4:15 AM 28.4 °F 15.4 °F 19.4 °F 69% 29.84 in 10.0 mi WNW 19.6 mph 23.0 mph N/A   Overcast
4:35 AM 28.4 °F 15.4 °F 17.6 °F 64% 29.85 in 10.0 mi WNW 19.6 mph 27.6 mph N/A   Overcast
4:55 AM 28.4 °F 15.4 °F 17.6 °F 64% 29.86 in 10.0 mi WNW 19.6 mph 26.5 mph N/A   Overcast
5:15 AM 28.4 °F 15.8 °F 17.6 °F 64% 29.87 in 10.0 mi NW 18.4 mph - N/A   Overcast
5:35 AM 26.6 °F 14.3 °F 17.6 °F 69% 29.88 in 10.0 mi NW 16.1 mph - N/A   Overcast
5:55 AM 26.6 °F 13.4 °F 17.6 °F 69% 29.87 in 10.0 mi WNW 18.4 mph - N/A   Scattered Clouds
6:15 AM 24.8 °F 11.5 °F 17.6 °F 74% 29.87 in 10.0 mi WNW 17.3 mph - N/A   Clear
6:35 AM 24.8 °F 11.9 °F 17.6 °F 74% 29.88 in 10.0 mi WNW 16.1 mph - N/A   Clear
6:55 AM 24.8 °F 12.4 °F 15.8 °F 69% 29.89 in 10.0 mi WNW 15.0 mph - N/A   Clear
7:15 AM 23.0 °F 10.6 °F 17.6 °F 80% 29.89 in 10.0 mi WNW 13.8 mph - N/A   Clear
7:35 AM 21.2 °F 8.3 °F 17.6 °F 86% 29.90 in 10.0 mi NW 13.8 mph - N/A   Clear
7:55 AM 21.2 °F 8.9 °F 15.8 °F 80% 29.91 in 10.0 mi NW 12.7 mph - N/A   Clear
8:15 AM 21.2 °F 10.1 °F 15.8 °F 80% 29.91 in 10.0 mi NW 10.4 mph - N/A   Clear
8:35 AM 19.4 °F 8.6 °F 15.8 °F 86% 29.93 in 10.0 mi NW 9.2 mph - N/A   Clear
8:55 AM 19.4 °F 7.9 °F 15.8 °F 86% 29.93 in 10.0 mi NW 10.4 mph - N/A   Clear
9:15 AM 19.4 °F 8.6 °F 15.8 °F 86% 29.94 in 10.0 mi NW 9.2 mph - N/A   Clear
9:35 AM 21.2 °F 10.9 °F 15.8 °F 80% 29.95 in 10.0 mi NW 9.2 mph - N/A   Clear
9:55 AM 21.2 °F 9.5 °F 17.6 °F 86% 29.96 in 10.0 mi NW 11.5 mph - N/A   Clear
10:15 AM 23.0 °F 10.6 °F 17.6 °F 80% 29.98 in 10.0 mi NW 13.8 mph - N/A   Clear
10:35 AM 23.0 °F 9.6 °F 15.8 °F 74% 29.99 in 10.0 mi NW 16.1 mph - N/A   Clear
10:55 AM 24.8 °F 11.9 °F 15.8 °F 69% 29.99 in 10.0 mi NNW 16.1 mph - N/A   Clear
11:15 AM 24.8 °F 11.9 °F 15.8 °F 69% 29.99 in 10.0 mi NNW 16.1 mph - N/A   Clear
11:35 AM 24.8 °F 12.4 °F 17.6 °F 74% 29.99 in 10.0 mi NNW 15.0 mph - N/A   Clear
11:55 AM 24.8 °F 14.0 °F 17.6 °F 74% 29.99 in 10.0 mi NNW 11.5 mph - N/A   Clear
12:15 PM 24.8 °F 12.4 °F 15.8 °F 69% 29.99 in 10.0 mi NNW 15.0 mph - N/A   Clear
12:35 PM 26.6 °F 15.7 °F 15.8 °F 64% 30.00 in 10.0 mi NNW 12.7 mph - N/A   Clear
12:55 PM 26.6 °F 16.2 °F 15.8 °F 64% 30.00 in 10.0 mi NW 11.5 mph 16.1 mph N/A   Clear
1:15 PM 26.6 °F 15.2 °F 15.8 °F 64% 30.00 in 10.0 mi NW 13.8 mph - N/A   Clear
1:35 PM 26.6 °F 16.8 °F 15.8 °F 64% 30.00 in 10.0 mi NW 10.4 mph - N/A   Clear
1:55 PM 28.4 °F 18.5 °F 15.8 °F 59% 30.00 in 10.0 mi NNW 11.5 mph - N/A   Clear
2:15 PM 28.4 °F 20.4 °F 15.8 °F 59% 29.98 in 10.0 mi NW 8.1 mph - N/A   Clear
2:35 PM 28.4 °F 21.2 °F 15.8 °F 59% 30.00 in 10.0 mi NW 6.9 mph - N/A   Clear
2:55 PM 28.4 °F 21.2 °F 15.8 °F 59% 29.99 in 10.0 mi NW 6.9 mph - N/A   Clear
3:15 PM 28.4 °F 21.2 °F 15.8 °F 59% 30.00 in 10.0 mi NW 6.9 mph - N/A   Clear
3:35 PM 28.4 °F 22.2 °F 15.8 °F 59% 30.01 in 10.0 mi NW 5.8 mph - N/A   Clear
3:55 PM 26.6 °F 22.6 °F 15.8 °F 64% 30.01 in 10.0 mi NNW 3.5 mph - N/A   Clear
4:15 PM 26.6 °F 22.6 °F 15.8 °F 64% 30.01 in 10.0 mi NNW 3.5 mph - N/A   Clear
4:35 PM 24.8 °F - 15.8 °F 69% 30.00 in 10.0 mi Calm Calm - N/A   Clear
4:55 PM 26.6 °F - 15.8 °F 64% 30.01 in 10.0 mi Calm Calm - N/A   Clear
5:15 PM 24.8 °F - 15.8 °F 69% 30.01 in 10.0 mi Calm Calm - N/A   Clear
5:35 PM 24.8 °F - 15.8 °F 69% 30.01 in 10.0 mi Calm Calm - N/A   Clear
5:55 PM 23.0 °F - 15.8 °F 74% 30.00 in 10.0 mi Calm Calm - N/A   Clear
6:15 PM 17.6 °F - 12.2 °F 79% 30.00 in 10.0 mi Calm Calm - N/A   Clear
6:35 PM 17.6 °F - 15.8 °F 93% 30.00 in 10.0 mi Calm Calm - N/A   Clear
6:55 PM 15.8 °F - 15.8 °F 100% 29.99 in 10.0 mi Calm Calm - N/A   Clear
7:15 PM 17.6 °F - 15.8 °F 93% 29.99 in 10.0 mi Calm Calm - N/A   Clear
7:35 PM 17.6 °F 7.3 °F 8.6 °F 68% 29.96 in 10.0 mi SE 8.1 mph - N/A   Clear
7:55 PM 19.4 °F 9.5 °F 15.8 °F 86% 29.97 in 10.0 mi South 8.1 mph - N/A   Clear
8:15 PM 19.4 °F 9.5 °F 15.8 °F 86% 29.97 in 10.0 mi South 8.1 mph - N/A   Clear
8:35 PM 19.4 °F 10.4 °F 12.2 °F 74% 29.96 in 10.0 mi SSE 6.9 mph - N/A   Clear
8:55 PM 19.4 °F 11.5 °F 14.0 °F 80% 29.96 in 10.0 mi SSE 5.8 mph - N/A   Clear
9:15 PM 15.8 °F 6.1 °F 15.8 °F 100% 29.95 in 10.0 mi SSE 6.9 mph - N/A   Clear
9:35 PM 17.6 °F 9.3 °F 14.0 °F 86% 29.94 in 10.0 mi SE 5.8 mph - N/A   Clear
9:55 PM 17.6 °F 6.4 °F 15.8 °F 93% 29.93 in 10.0 mi SE 9.2 mph - N/A   Clear
10:15 PM 19.4 °F 8.6 °F 15.8 °F 86% 29.92 in 10.0 mi SE 9.2 mph - N/A   Clear
10:35 PM 17.6 °F 6.4 °F 14.0 °F 86% 29.91 in 10.0 mi SE 9.2 mph - N/A   Clear
10:55 PM 17.6 °F 5.7 °F 14.0 °F 86% 29.91 in 10.0 mi SSE 10.4 mph - N/A   Clear
11:15 PM 17.6 °F 7.3 °F 15.8 °F 93% 29.90 in 10.0 mi SE 8.1 mph - N/A   Clear
11:35 PM 17.6 °F 7.3 °F 14.0 °F 86% 29.89 in 10.0 mi SE 8.1 mph - N/A   Clear
11:55 PM 19.4 °F 12.8 °F 15.8 °F 86% 29.89 in 10.0 mi SSE 4.6 mph - N/A   Clear